W3EJE-13 Weather Reports


Display with metric or nautical units.
time (UTC)temp
F
wind
direction
speed
MPH
gust
MPH
rain 1hr
in
rain 24hr
in
rain mn
in
humidity
%
barometer
mb
20260904003205 69 246 0.0 0.0 0.00 0.32 0.32 94 1020.2
20260904002701 69 201 0.0 0.0 0.00 0.32 0.32 94 1020.5
20260904002156 70 225 0.0 0.0 0.00 0.32 0.32 92 1020.6
20260904001651 70 213 0.0 0.0 0.00 0.32 0.32 92 1020.6
20260904001150 70 254 0.0 1.0 0.00 0.32 0.32 90 1020.6
20260904000645 71 306 2.0 3.0 0.00 0.32 0.32 87 1020.6
20260904000140 72 3 1.0 2.0 0.00 0.32 0.32 87 1021.2
20260903235640 73 349 8.0 14.0 0.00 0.32 0.32 87 1020.9
20260903235136 78 320 8.0 15.0 0.00 0.32 0.32 96 1020.8
20260903234631 79 259 0.0 0.0 0.00 0.32 0.32 94 1019.4
20260903234127 79 256 0.0 0.0 0.00 0.32 0.32 92 1019.4
20260903233623 79 258 0.0 0.0 0.00 0.32 0.32 92 1019.7
20260903233118 79 259 0.0 0.0 0.00 0.32 0.32 91 1019.8
20260903232613 79 258 0.0 0.0 0.00 0.32 0.32 90 1019.8
20260903232108 79 253 0.0 1.0 0.00 0.32 0.32 91 1020.0
20260903231602 79 259 0.0 0.0 0.00 0.32 0.32 92 1020.3
20260903231057 79 258 1.0 1.0 0.00 0.32 0.32 92 1020.4
20260903230553 80 269 2.0 2.0 0.00 0.32 0.32 90 1020.0
20260903230051 80 345 2.0 2.0 0.00 0.32 0.32 91 1020.2
20260903225549 80 264 0.0 1.0 0.00 0.32 0.32 91 1020.0
20260903225045 80 263 1.0 1.0 0.00 0.32 0.32 91 1019.8
20260903224541 80 275 2.0 2.0 0.00 0.32 0.32 89 1019.5
20260903224037 80 248 0.0 0.0 0.00 0.32 0.32 88 1018.7
20260903223537 80 269 2.0 2.0 0.00 0.32 0.32 90 1018.7
20260903223036 80 256 0.0 1.0 0.00 0.32 0.32 91 1018.7
20260903222531 82 262 1.0 1.0 0.00 0.32 0.32 87 1018.3
20260903222030 82 261 0.0 0.0 0.00 0.32 0.32 85 1018.3
20260903221525 82 261 0.0 0.0 0.00 0.32 0.32 85 1018.5
20260903221023 82 269 0.0 0.0 0.00 0.32 0.32 85 1018.4
20260903220522 82 260 1.0 1.0 0.00 0.32 0.32 85 1018.6
20260903220016 83 266 2.0 2.0 0.00 0.32 0.32 82 1018.7
20260903215510 83 258 3.0 3.0 0.00 0.32 0.32 82 1018.7
20260903215009 83 265 2.0 2.0 0.00 0.32 0.32 82 1018.7
20260903214504 84 258 4.0 6.0 0.00 0.32 0.32 81 1018.6
20260903214004 84 299 4.0 5.0 0.00 0.32 0.32 81 1018.4
20260903213500 85 267 3.0 3.0 0.00 0.32 0.32 78 1017.8
20260903212955 86 335 6.0 7.0 0.00 0.32 0.32 78 1017.7
20260903212451 86 270 2.0 3.0 0.00 0.32 0.32 75 1018.2
20260903211951 85 263 5.0 7.0 0.00 0.32 0.32 77 1018.4
20260903211446 85 270 3.0 3.0 0.00 0.32 0.32 77 1018.4
20260903210943 86 269 2.0 2.0 0.00 0.32 0.32 76 1018.3
20260903210442 87 267 5.0 8.0 0.00 0.32 0.32 77 1018.6
20260903205937 86 268 2.0 2.0 0.00 0.32 0.32 74 1018.5
20260903205432 87 259 2.0 3.0 0.00 0.32 0.32 74 1018.5
20260903204926 86 270 7.0 7.0 0.00 0.32 0.32 75 1018.5
20260903204423 86 275 3.0 3.0 0.00 0.32 0.32 74 1018.5
20260903203918 87 321 7.0 8.0 0.00 0.32 0.32 75 1018.5
20260903203414 87 253 3.0 3.0 0.00 0.32 0.32 74 1018.5
20260903202913 87 274 3.0 3.0 0.00 0.32 0.32 74 1018.5
20260903202410 86 314 3.0 3.0 0.00 0.32 0.32 74 1018.5
20260903201909 86 280 4.0 6.0 0.00 0.32 0.32 74 1018.7
20260903201405 86 349 5.0 6.0 0.00 0.32 0.32 74 1018.8
20260903200903 86 347 5.0 6.0 0.00 0.32 0.32 73 1018.6
20260903200358 86 359 6.0 7.0 0.00 0.32 0.32 75 1018.9
20260903195854 86 356 7.0 13.0 0.00 0.32 0.32 74 1019.0
20260903195350 87 298 2.0 2.0 0.00 0.32 0.32 73 1018.9
20260903194844 87 275 4.0 5.0 0.00 0.32 0.32 72 1018.9
20260903194340 86 260 1.0 2.0 0.00 0.32 0.32 73 1018.9
20260903193835 86 17 6.0 8.0 0.00 0.32 0.32 75 1019.1
20260903193332 87 315 5.0 6.0 0.00 0.32 0.32 75 1018.8
20260903192826 87 255 2.0 3.0 0.00 0.32 0.32 73 1019.0
20260903192323 86 337 5.0 6.0 0.00 0.32 0.32 74 1019.2
20260903191819 86 270 3.0 3.0 0.00 0.32 0.32 77 1019.2
20260903191314 86 275 1.0 2.0 0.00 0.32 0.32 77 1019.5
20260903190814 86 264 1.0 2.0 0.00 0.32 0.32 78 1019.5
20260903190308 85 254 4.0 6.0 0.00 0.32 0.32 80 1019.7
20260903185803 85 281 5.0 6.0 0.00 0.32 0.32 78 1019.6
20260903185306 85 348 4.0 5.0 0.00 0.32 0.32 78 1019.8
20260903184759 85 284 3.0 3.0 0.00 0.32 0.32 77 1019.9
20260903184255 84 244 1.0 2.0 0.00 0.32 0.32 80 1020.0
20260903183750 85 279 4.0 5.0 0.00 0.32 0.32 79 1020.1
20260903183244 83 288 3.0 5.0 0.00 0.32 0.32 79 1020.1
20260903182743 83 293 5.0 6.0 0.00 0.32 0.32 78 1020.3
20260903182238 83 268 2.0 2.0 0.00 0.32 0.32 79 1020.2
20260903181738 83 258 3.0 3.0 0.00 0.32 0.32 79 1020.5
20260903181232 83 261 3.0 3.0 0.00 0.32 0.32 76 1020.6
20260903180728 82 289 2.0 2.0 0.00 0.32 0.32 76 1020.6
20260903180226 82 264 0.0 0.0 0.00 0.32 0.32 78 1020.5
20260903175721 82 261 0.0 1.0 0.00 0.32 0.32 81 1020.7
20260903175215 82 28 2.0 2.0 0.00 0.32 0.32 80 1020.7
20260903174714 81 238 0.0 0.0 0.00 0.32 0.32 84 1020.6
20260903174210 80 267 3.0 3.0 0.00 0.32 0.32 86 1020.7
20260903173710 80 263 2.0 3.0 0.00 0.32 0.32 84 1021.0
20260903173206 80 284 4.0 5.0 0.00 0.32 0.32 86 1020.7
20260903172700 79 258 0.0 0.0 0.00 0.32 0.32 87 1020.9
20260903172156 79 269 0.0 0.0 0.00 0.32 0.32 86 1021.0
20260903171650 79 273 3.0 5.0 0.00 0.32 0.32 88 1020.9
20260903171147 77 255 0.0 1.0 0.00 0.32 0.32 89 1020.9
20260903170645 77 257 0.0 0.0 0.00 0.32 0.32 89 1021.2
20260903170141 77 258 1.0 1.0 0.00 0.32 0.32 91 1021.5
20260903165638 76 268 0.0 0.0 0.00 0.32 0.32 90 1021.5
20260903165134 75 307 0.0 0.0 0.00 0.32 0.32 91 1021.5
20260903164628 75 276 0.0 0.0 0.00 0.32 0.32 96 1021.6
20260903164124 73 259 0.0 0.0 0.00 0.32 0.32 99 1021.9
20260903163618 73 255 0.0 0.0 0.00 0.32 0.32 99 1021.9
20260903163115 72 261 0.0 0.0 0.00 0.32 0.32 99 1022.0
20260903162611 71 246 0.0 0.0 0.00 0.32 0.32 99 1022.1
20260903162107 71 272 0.0 0.0 0.00 0.32 0.32 99 1022.2
20260903161602 71 210 0.0 0.0 0.00 0.32 0.32 99 1022.0
20260903161057 71 291 0.0 0.0 0.00 0.32 0.32 99 1022.2
20260903160556 70 230 0.0 0.0 0.00 0.32 0.32 99 1022.4
20260903160051 70 257 0.0 0.0 0.07 0.32 0.32 99 1022.7
20260903155550 69 258 0.0 0.0 0.07 0.32 0.32 99 1022.5
20260903155045 69 248 0.0 0.0 0.00 0.31 0.31 99 1022.5
20260903154542 69 258 0.0 0.0 0.00 0.31 0.31 99 1022.5
20260903154038 68 257 0.0 0.0 0.00 0.31 0.31 99 1022.7
20260903153532 68 244 0.0 0.0 0.00 0.31 0.31 99 1022.2
20260903153028 69 245 0.0 0.0 0.00 0.31 0.31 99 1022.6
20260903152524 68 236 0.0 0.0 0.00 0.31 0.31 99 1022.6
20260903152021 68 240 0.0 0.0 0.00 0.31 0.31 99 1022.6
20260903151519 68 249 0.0 0.0 0.00 0.31 0.31 99 1022.7
20260903151015 67 247 0.0 0.0 0.05 0.31 0.31 99 1023.4
20260903150509 68 247 0.0 0.0 0.05 0.31 0.31 99 1023.4
20260903150004 67 241 0.0 0.0 0.00 0.30 0.30 99 1023.1
20260903145459 68 232 0.0 0.0 0.24 0.30 0.30 99 1023.3
20260903144954 68 259 0.0 0.0 0.24 0.30 0.30 99 1023.0
20260903144453 67 235 0.0 0.0 0.07 0.26 0.26 99 1023.3
20260903143949 67 253 0.0 0.0 0.07 0.26 0.26 99 1023.5
20260903143445 67 246 0.0 0.0 0.05 0.25 0.25 99 1023.0
20260903142941 67 248 0.0 0.0 0.24 0.25 0.25 99 1023.0
20260903142436 67 245 0.0 0.0 0.26 0.24 0.24 99 1023.1
20260903141932 67 245 0.0 0.0 0.19 0.21 0.21 99 1023.1
20260903141428 67 249 0.0 0.0 0.17 0.20 0.20 99 1023.2
20260903140923 67 245 0.0 0.0 0.05 0.18 0.18 99 1022.8
20260903140419 68 226 0.0 0.0 0.00 0.17 0.17 99 1022.3
20260903135914 68 245 0.0 0.0 0.00 0.17 0.17 99 1022.4
20260903135410 68 242 0.0 0.0 0.00 0.17 0.17 99 1022.3
20260903134909 67 241 0.0 0.0 0.00 0.17 0.17 99 1022.4
20260903134403 67 242 0.0 0.0 0.19 0.17 0.17 99 1022.4
20260903133901 67 247 0.0 0.0 0.19 0.17 0.17 99 1022.5
20260903133357 67 161 0.0 0.0 0.05 0.14 0.14 99 1022.8
20260903132857 68 238 0.0 0.0 0.00 0.13 0.13 99 1023.4
20260903132353 69 243 0.0 0.0 0.00 0.13 0.13 99 1023.3
20260903131853 69 306 7.0 9.0 0.00 0.13 0.13 99 1023.4
20260903131347 69 251 0.0 0.0 0.00 0.13 0.13 99 1021.7
20260903130846 69 250 0.0 0.0 0.00 0.13 0.13 99 1022.0
20260903130341 69 251 0.0 0.0 0.00 0.13 0.13 99 1021.9
20260903125840 69 253 0.0 0.0 0.00 0.13 0.13 99 1022.0
20260903125335 69 252 0.0 0.0 0.00 0.13 0.13 99 1022.2
20260903124834 69 252 0.0 0.0 0.00 0.13 0.13 99 1022.3
20260903124330 69 252 0.0 0.0 0.00 0.13 0.13 99 1022.1
20260903123828 69 251 0.0 0.0 0.00 0.13 0.13 99 1021.9
20260903123323 69 250 0.0 0.0 0.00 0.13 0.13 99 1022.1
20260903122822 69 250 0.0 0.0 0.00 0.13 0.13 99 1022.1
20260903122317 68 251 0.0 0.0 0.00 0.13 0.13 99 1022.2
20260903121815 68 253 0.0 0.0 0.00 0.13 0.13 99 1022.2
20260903121311 68 251 0.0 0.0 0.00 0.13 0.13 99 1022.3
20260903120807 68 251 0.0 0.0 0.00 0.13 0.13 99 1022.1
20260903120300 68 241 0.0 0.0 0.00 0.13 0.13 99 1022.1
20260903115758 68 239 0.0 0.0 0.00 0.13 0.13 99 1022.2
20260903115254 68 243 0.0 0.0 0.07 0.13 0.13 99 1022.1
20260903114748 68 232 0.0 0.0 0.07 0.13 0.13 99 1022.1
20260903114244 68 249 0.0 0.0 0.00 0.12 0.12 99 1022.3
20260903113739 68 256 0.0 0.0 0.00 0.12 0.12 99 1022.4
20260903113235 68 224 0.0 0.0 0.05 0.12 0.12 99 1022.0
20260903112730 68 232 0.0 0.0 0.12 0.12 0.12 99 1022.2
20260903112226 68 257 0.0 0.0 0.19 0.11 0.11 99 1022.0
20260903111725 68 246 0.0 0.0 0.42 0.10 0.10 99 1022.0
20260903111220 69 243 0.0 0.0 0.35 0.08 0.08 99 1021.9
20260903110716 69 244 0.0 0.0 0.05 0.03 0.03 99 1021.8
20260903110212 69 247 0.0 0.0 0.07 0.02 0.02 99 1021.9
20260903105711 70 240 0.0 0.0 0.12 0.02 0.02 99 1022.0
20260903105206 71 236 0.0 0.0 0.05 0.01 0.01 99 1021.9
20260903104706 71 238 0.0 0.0 0.00 0.00 0.00 98 1022.0
20260903104201 72 229 0.0 0.0 0.00 0.00 0.00 98 1021.6
20260903103657 72 196 1.0 3.0 0.00 0.00 0.00 97 1021.6
20260903103153 72 99 0.0 0.0 0.00 0.00 0.00 98 1021.5
20260903102654 71 248 0.0 0.0 0.00 0.00 0.00 99 1021.4
20260903102148 71 249 0.0 0.0 0.00 0.00 0.00 99 1020.7
20260903101647 71 246 0.0 0.0 0.00 0.00 0.00 99 1020.4
20260903101143 71 242 0.0 0.0 0.00 0.00 0.00 99 1020.5
20260903100637 71 248 0.0 0.0 0.00 0.00 0.00 99 1020.5
20260903100137 71 252 0.0 0.0 0.00 0.00 0.00 99 1020.6
20260903095635 71 244 0.0 0.0 0.00 0.00 0.00 99 1020.5
20260903095135 71 249 0.0 0.0 0.00 0.00 0.00 99 1020.4
20260903094630 71 247 0.0 0.0 0.00 0.00 0.00 99 1020.4
20260903094125 71 232 0.0 0.0 0.00 0.00 0.00 99 1020.6
20260903093620 71 245 0.0 0.0 0.00 0.00 0.00 99 1020.2
20260903093116 71 246 0.0 0.0 0.00 0.00 0.00 99 1020.1
20260903092615 71 251 0.0 0.0 0.00 0.00 0.00 99 1020.0
20260903092109 71 244 0.0 0.0 0.00 0.00 0.00 99 1020.1
20260903091608 71 247 0.0 0.0 0.00 0.00 0.00 99 1020.1
20260903091102 71 248 0.0 0.0 0.00 0.00 0.00 99 1020.2
20260903090559 71 246 0.0 0.0 0.00 0.00 0.00 99 1020.4
20260903090057 71 249 0.0 0.0 0.00 0.00 0.00 99 1020.3
20260903085555 71 248 0.0 0.0 0.00 0.00 0.00 99 1020.5
20260903085052 71 250 0.0 0.0 0.00 0.00 0.00 99 1020.5
20260903084550 71 250 0.0 0.0 0.00 0.00 0.00 99 1020.4
20260903084044 71 250 0.0 0.0 0.00 0.00 0.00 99 1020.5
20260903083540 70 249 0.0 0.0 0.00 0.00 0.00 99 1020.2
20260903083040 70 250 0.0 0.0 0.00 0.00 0.00 99 1020.5
20260903082534 70 243 0.0 0.0 0.00 0.00 0.00 99 1020.4
20260903082030 70 239 0.0 0.0 0.00 0.00 0.00 99 1020.1
20260903081525 69 236 0.0 0.0 0.00 0.00 0.00 99 1020.3
20260903081021 69 251 0.0 0.0 0.00 0.00 0.00 99 1020.0
20260903080517 69 253 0.0 0.0 0.00 0.00 0.00 99 1020.1
20260903080014 69 254 0.0 0.0 0.00 0.00 0.00 99 1020.2
20260903075508 69 255 0.0 0.0 0.00 0.00 0.00 99 1020.2
20260903075003 69 250 0.0 0.0 0.00 0.00 0.00 99 1020.3
20260903074502 69 245 0.0 0.0 0.00 0.00 0.00 99 1020.2
20260903073957 69 244 0.0 0.0 0.00 0.00 0.00 99 1020.2
20260903073452 69 237 0.0 0.0 0.00 0.00 0.00 99 1020.3
20260903072948 68 237 0.0 0.0 0.00 0.00 0.00 99 1020.1
20260903072444 68 237 0.0 0.0 0.00 0.00 0.00 99 1020.4
20260903071941 68 236 0.0 0.0 0.00 0.00 0.00 99 1020.2
20260903071437 68 234 0.0 0.0 0.00 0.00 0.00 99 1020.1
20260903070932 68 246 0.0 0.0 0.00 0.00 0.00 99 1020.2
20260903070432 68 248 0.0 0.0 0.00 0.00 0.00 99 1020.5
20260903065926 68 221 0.0 0.0 0.00 0.00 0.00 99 1020.3
20260903065421 69 221 0.0 0.0 0.00 0.00 0.00 99 1020.1
20260903064920 69 221 0.0 0.0 0.00 0.00 0.00 99 1020.1
20260903064415 69 221 0.0 0.0 0.00 0.00 0.00 99 1020.3
20260903063911 69 221 0.0 0.0 0.00 0.00 0.00 99 1020.5
20260903063406 69 221 0.0 0.0 0.00 0.00 0.00 99 1020.6
20260903062902 69 221 0.0 0.0 0.00 0.00 0.00 99 1020.5
20260903062402 69 221 0.0 0.0 0.00 0.00 0.00 99 1020.4
20260903061858 69 221 0.0 0.0 0.00 0.00 0.00 99 1020.2
20260903061357 69 221 0.0 0.0 0.00 0.00 0.00 99 1020.3
20260903060853 69 221 0.0 0.0 0.00 0.00 0.00 99 1020.3
20260903060353 69 221 0.0 0.0 0.00 0.00 0.00 99 1020.2
20260903055850 69 220 0.0 0.0 0.00 0.00 0.00 99 1020.3
20260903055348 69 220 0.0 0.0 0.00 0.00 0.00 99 1020.1
20260903054844 69 220 0.0 0.0 0.00 0.00 0.00 99 1020.1
20260903054338 69 220 0.0 0.0 0.00 0.00 0.00 99 1020.1
20260903053835 70 220 0.0 0.0 0.00 0.00 0.00 99 1020.2
20260903053329 70 220 0.0 0.0 0.00 0.00 0.00 99 1020.3
20260903052825 70 220 0.0 0.0 0.00 0.00 0.00 99 1020.5
20260903052320 70 220 0.0 0.0 0.00 0.00 0.00 99 1020.2
20260903051816 70 220 0.0 0.0 0.00 0.00 0.00 99 1020.3
20260903051311 70 220 0.0 0.0 0.00 0.00 0.00 99 1020.2
20260903050807 70 220 0.0 0.0 0.00 0.00 0.00 99 1020.2
20260903050306 71 220 0.0 0.0 0.00 0.00 0.00 99 1020.4
20260903045801 71 220 0.0 0.0 0.00 0.00 0.00 99 1020.0
20260903045257 71 220 0.0 0.0 0.00 0.00 0.00 99 1020.2
20260903044753 71 220 0.0 0.0 0.00 0.00 0.00 99 1020.2
20260903044248 71 220 0.0 0.0 0.00 0.00 0.00 99 1020.1
20260903043745 71 220 0.0 0.0 0.00 0.00 0.00 99 1020.2
20260903043244 71 220 0.0 0.0 0.00 0.00 0.00 99 1020.1
20260903042744 71 221 0.0 0.0 0.00 0.00 0.00 99 1020.3
20260903042239 72 221 0.0 0.0 0.00 0.00 0.00 99 1020.4
20260903041735 72 220 0.0 0.0 0.00 0.00 0.00 99 1020.4
20260903041232 72 220 0.0 0.0 0.00 0.00 0.00 99 1020.5
20260903040731 72 220 0.0 0.0 0.00 0.00 0.00 99 1020.3
20260903040225 72 219 0.0 0.0 0.00 0.00 0.00 99 1020.7
20260903035721 72 221 0.0 0.0 0.00 0.00 0.00 99 1020.5
20260903035217 72 219 0.0 0.0 0.00 0.00 0.00 99 1020.7
20260903034717 72 214 0.0 0.0 0.00 0.00 0.00 99 1020.7
20260903034212 72 220 0.0 0.0 0.00 0.00 0.00 99 1020.8
20260903033708 72 220 0.0 0.0 0.00 0.00 0.00 99 1020.6
20260903033202 72 220 0.0 0.0 0.00 0.00 0.00 99 1020.8
20260903032657 72 221 0.0 0.0 0.00 0.00 0.00 99 1020.6
20260903032152 72 221 0.0 0.0 0.00 0.00 0.00 99 1020.7
20260903031648 72 221 0.0 0.0 0.00 0.00 0.00 99 1020.8
20260903031142 72 221 0.0 0.0 0.00 0.00 0.00 99 1020.6
20260903030638 72 213 0.0 0.0 0.00 0.00 0.00 99 1020.7
20260903030133 72 213 0.0 0.0 0.00 0.00 0.00 99 1020.6
20260903025628 72 213 0.0 0.0 0.00 0.00 0.00 99 1020.7
20260903025124 73 213 0.0 0.0 0.00 0.00 0.00 99 1020.6
20260903024619 73 213 0.0 0.0 0.00 0.00 0.00 99 1020.7
20260903024113 73 213 0.0 0.0 0.00 0.00 0.00 99 1020.7
20260903023609 73 213 0.0 0.0 0.00 0.00 0.00 99 1020.9
20260903023108 73 213 0.0 0.0 0.00 0.00 0.00 99 1020.8
20260903022603 73 213 0.0 0.0 0.00 0.00 0.00 99 1020.9
20260903022102 74 213 0.0 0.0 0.00 0.00 0.00 99 1021.2
20260903021557 74 213 0.0 0.0 0.00 0.00 0.00 99 1021.3
20260903021051 74 213 0.0 0.0 0.00 0.00 0.00 99 1021.0
20260903020547 74 213 0.0 0.0 0.00 0.00 0.00 98 1020.8
20260903020047 75 213 0.0 0.0 0.00 0.00 0.00 98 1020.7
20260903015543 75 213 0.0 0.0 0.00 0.00 0.00 98 1020.7
20260903015038 75 213 0.0 0.0 0.00 0.00 0.00 98 1020.7
20260903014537 75 213 0.0 0.0 0.00 0.00 0.00 98 1020.6
20260903014032 75 212 0.0 0.0 0.00 0.00 0.00 98 1021.0
20260903013531 75 212 0.0 0.0 0.00 0.00 0.00 99 1020.7
20260903013026 75 212 0.0 0.0 0.00 0.00 0.00 99 1020.7
20260903012526 75 212 0.0 0.0 0.00 0.00 0.00 98 1020.9
20260903012025 75 212 0.0 0.0 0.00 0.00 0.00 98 1020.9
20260903011519 75 212 0.0 0.0 0.00 0.00 0.00 98 1021.2
20260903011014 75 208 0.0 0.0 0.00 0.00 0.00 98 1021.0
20260903010509 75 207 0.0 0.0 0.00 0.00 0.00 98 1021.2
20260903010008 75 206 0.0 0.0 0.00 0.00 0.00 98 1021.2
20260903005503 76 199 0.0 0.0 0.00 0.00 0.00 97 1020.9
20260903004958 76 198 0.0 0.0 0.00 0.00 0.00 97 1020.9
20260903004453 76 199 0.0 0.0 0.00 0.00 0.00 97 1021.0
20260903003949 77 199 0.0 0.0 0.00 0.00 0.00 96 1021.0
20260903003448 77 199 0.0 0.0 0.00 0.00 0.00 94 1020.7